Flag for Canada Weather past 2 weeks in Burlington, Ontario, Canada

Now
76 °F

Mild.


Feels Like: 78 °F
Forecast: 63 / 77 °F
Wind: 10 mph from South

Location: Burlington Piers

Current Time: Jul 26, 2014 at 3:54:13 PM

Latest Report: Jul 26, 2014 at 3:00 PM


Visibility: N/A

Pressure: 29.84 "Hg

Humidity: 56%

Dew point: 59 °F

Location of BurlingtonLocation

Historic Weather in Burlington — Graph

°F

Burlington temperature yesterday

Maximum temperature yesterday: 76 °F (at 5:00 PM)
Minimum temperature yesterday: 60 °F (at 7:00 AM)
Average temperature yesterday: 68 °F

Past Weeks' High & Low Weather Summary

 TemperatureHumidityPressure
High83 °F (Jul 22, 7:00 PM)100% (Jul 21, 1:00 AM)30.24 "Hg (Jul 21, 1:00 AM)
Low53 °F (Jul 18, 6:00 AM)33% (Jul 17, 6:00 PM)29.66 "Hg (Jul 15, 10:00 AM)
Average67 °F72%29.99 "Hg
* Reported Jul 11 2:00 PM — Jul 26 2:00 PM, Burlington, Weather by CustomWeather, © 2014

Note: Actual official high and low records may vary slightly from our data, if they occured in-between our weather recording intervals... More about our weather records

Advertising

Burlington weather history for previous 24 hours

 ConditionsComfort  
Time TempWeatherWind HumidityBarometerVisibility
2:00 PM
Jul 26
76 °FMild.8 mph55%29.86 "HgN/A
1:00 PM75 °FMild.5 mph57%29.87 "HgN/A
12:00 PM75 °FMild.7 mph57%29.89 "HgN/A
11:00 AM73 °FMild.6 mph57%29.90 "HgN/A
10:00 AM69 °FMild.5 mph70%29.91 "HgN/A
9:00 AM68 °FMild.6 mph75%29.92 "HgN/A
8:00 AM67 °FMild.7 mph75%29.93 "HgN/A
7:00 AM67 °FMild.3 mph76%29.92 "HgN/A
6:00 AM67 °FMild.5 mph75%29.91 "HgN/A
5:00 AM66 °FMild.3 mph75%29.91 "HgN/A
4:00 AM65 °FMild.2 mph73%29.92 "HgN/A
3:00 AM66 °FMild.3 mph71%29.92 "HgN/A
2:00 AM66 °FMild.2 mph70%29.93 "HgN/A
1:00 AM66 °FMild.3 mph69%29.95 "HgN/A
12:00 AM67 °FMild.3 mph67%29.95 "HgN/A
11:00 PM
Jul 25
68 °FMild.3 mph65%29.95 "HgN/A
10:00 PM70 °FMild.6 mph62%29.96 "HgN/A
9:00 PM72 °FMild.6 mph56%29.95 "HgN/A
8:00 PM73 °FMild.9 mph55%29.95 "HgN/A
7:00 PM74 °FMild.7 mph51%29.94 "HgN/A
6:00 PM75 °FMild.6 mph40%29.94 "HgN/A
5:00 PM76 °FMild.7 mph42%29.95 "HgN/A
4:00 PM75 °FMild.6 mph40%29.96 "HgN/A
3:00 PM74 °FMild.7 mph40%29.98 "HgN/A
Weather by CustomWeather, © 2014

See weather overviewHow to use our weather pages